This is the latest recevied weather packets stored in our database for station/object YF9UAG-17. If no packets are shown the sender has not sent any weather packets the latest 10 day(s).
| Time | Temp. | Humidity | Pressure | Rain* | Wind** | Luminosity | Snow |
|---|---|---|---|---|---|---|---|
| 1787506296 | 29.44° C | 53% | 1033.6 hPa | - | - | - | - |
| 1787505693 | 29.44° C | 53% | 1033.7 hPa | - | - | - | - |
| 1787505090 | 29.44° C | 53% | 1033.8 hPa | - | - | - | - |
| 1787504486 | 29.44° C | 53% | 1033.9 hPa | - | - | - | - |
| 1787503883 | 29.44° C | 53% | 1034 hPa | - | - | - | - |
| 1787503280 | 29.44° C | 53% | 1034 hPa | - | - | - | - |
| 1787502676 | 29.44° C | 53% | 1034.2 hPa | - | - | - | - |
| 1787502073 | 30° C | 53% | 1034.3 hPa | - | - | - | - |
| 1787501469 | 30° C | 53% | 1034.3 hPa | - | - | - | - |
| 1787500866 | 30° C | 53% | 1034.4 hPa | - | - | - | - |
| 1787500263 | 30° C | 53% | 1034.4 hPa | - | - | - | - |
| 1787499660 | 30° C | 53% | 1034.5 hPa | - | - | - | - |
| 1787499057 | 30° C | 53% | 1034.5 hPa | - | - | - | - |
| 1787498450 | 30.56° C | 52% | 1034.5 hPa | - | - | - | - |
| 1787497847 | 31.11° C | 50% | 1034.6 hPa | - | - | - | - |
| 1787497244 | 31.67° C | 50% | 1034.6 hPa | - | - | - | - |
| 1787496641 | 31.11° C | 50% | 1034.6 hPa | - | - | - | - |
| 1787496037 | 31.11° C | 51% | 1034.5 hPa | - | - | - | - |
| 1787495417 | 30.56° C | 52% | 1034.4 hPa | - | - | - | - |
| 1787494814 | 30° C | 53% | 1034.4 hPa | - | - | - | - |
| 1787494209 | 30° C | 53% | 1034.3 hPa | - | - | - | - |
| 1787493606 | 30° C | 53% | 1034.3 hPa | - | - | - | - |
| 1787493001 | 30° C | 53% | 1034.2 hPa | - | - | - | - |
| 1787492396 | 30° C | 53% | 1034.2 hPa | - | - | - | - |
| 1787491793 | 30° C | 53% | 1034.2 hPa | - | - | - | - |
* Rain since midnight (hover to see other rain measurements)
** Current wind speed in m/s (hover to see current wind gust speed)